Other Public Products
Issued by NWS Grand Forks, ND

Home | Current Version | Previous Version | Graphics & Text | Print | Product List | Glossary On
Versions: 1 2 3 4 5 6 7 8 9 10 11 12 13 14 15 16 17 18 19 20 21 22 23 24 25 26 27 28 29 30 31 32 33 34 35 36 37 38 39 40 41 42 43 44 45 46 47 48 49 50
285
FPUS83 KFGF 020831
OPUFGF
PRAIRIE TO PINES WEATHER ROUNDUP
NATIONAL WEATHER SERVICE EASTERN NORTH DAKOTA/GRAND FORKS ND
200 AM CST FRI DEC 02 2016

 **SATELLITE DATA USED TO AUGMENT SKY COVER AT AUTOMATED STATIONS**
 *****  WEATHER ACROSS EASTERN NORTH DAKOTA  *****

CITY           SKY/WX    TMP DP  RH WIND       PRES   REMARKS
GRAND FORKS    CLOUDY    29  22  75 N15       30.15R WCI  18
GRAND FORKS AF CLOUDY    28  22  79 N12       30.15R WCI  18
GRAND CITY NWS   N/A     27 N/A N/A N7          N/A  WCI  19
BUXTON           N/A     43  40  89 NW12        N/A
DEVILS LAKE    CLOUDY    27  22  81 N9        30.15R WCI  18
FARGO          CLOUDY    29  23  78 N13       30.14R WCI  19
WAHPETON ARPT  CLOUDY    28  21  74 N9        30.14R WCI  20
$$

 *****  WEATHER ACROSS CENTRAL AND WESTERN NORTH DAKOTA  *****

CITY           SKY/WX    TMP DP  RH WIND       PRES   REMARKS
JAMESTOWN      CLOUDY    27  22  81 N9        30.13R WCI  18
BISMARCK       CLOUDY    26  24  92 NE5       30.15R WCI  20
MINOT          CLOUDY    28  22  78 CALM      30.14R
MINOT AFB      CLOUDY    26  20  78 SW5       30.13R WCI  21
GARRISON         N/A     26  21  81 CALM      30.13R
WILLISTON      CLOUDY    28  23  81 SE6       30.11R WCI  22
DICKINSON      CLOUDY    24  21  88 S5        30.07R WCI  18
HETTINGER      CLOUDY    24  20  84 CALM      30.10R
$$

 *****  OTHER OBSERVATIONS NORTHEAST NORTH DAKOTA  *****

CITY           SKY/WX    TMP DP  RH WIND       PRES   REMARKS
WALHALLA         N/A     27  27 100 NW5       30.16S WCI  21
LANGDON        CLOUDY    27  23  86 N8        30.13R WCI  18
CAVALIER         N/A     28  25  86 N3        30.16R
GRAFTON        CLOUDY    28  23  80 N13       30.18R WCI  18
CANDO          CLOUDY    28  23  80 NW6       30.17R WCI  22
FORT TOTTEN      N/A     26  22  83 N3        29.95S
ROLLA          CLOUDY    25  25 100 NW3       30.13R
RUGBY            N/A     23  23 100 SW6       30.15R WCI  16
 ***** THE ABOVE OBSERVATIONS ARE NON NWS ARE NOT QUALITY
        CONTROLLED AND MAY MIS-REPORT RAIN FOR SNOW...
$$

 *****  OTHER OBSERVATIONS SOUTHEAST NORTH DAKOTA *****

CITY           SKY/WX    TMP DP  RH WIND       PRES   REMARKS
COOPERSTOWN    CLOUDY    27  23  86 N13       30.15R WCI  16
VALLEY CITY    CLOUDY    27  25  93 N8        30.16R WCI  18
OAKES          NOT AVBL
GWINNER        CLOUDY    30  23  74 N5        30.14R
BUFFALO          N/A     27  20  75 N10         N/A  WCI  17
WYNDMERE         N/A     28  23  80 N6          N/A  WCI  22
 ***** THE ABOVE OBSERVATIONS ARE NON NWS ARE NOT QUALITY
       CONTROLLED AND MAY MIS-REPORT RAIN FOR SNOW...
$$

  *****  WEATHER ACROSS NORTHERN MINNESOTA  *****

CITY           SKY/WX    TMP DP  RH WIND       PRES   REMARKS
FLAG ISLAND    CLOUDY    21  19  93 W9        30.10R WCI  11
WARROAD        CLOUDY    21  18  86 N5        30.12R WCI  15
ROSEAU         CLOUDY    25  19  80 N8        30.12R WCI  16
HALLOCK        CLOUDY    28  25  86 NW12      30.15R WCI  18
THF RVR FALLS  CLOUDY    26  21  81 N10       30.12R WCI  16
HALSTAD          N/A     28  23  81 N8          N/A  WCI  20
FOSSTON        CLOUDY    23  19  86 N7        30.12R WCI  15
BAUDETTE       CLOUDY    25  21  85 NW9       30.08R WCI  15
WASKISH        CLOUDY    25  21  86 NW8       30.10R WCI  16
CROOKSTON      CLOUDY    28  23  80 N7        30.15R WCI  21
$$
  *****  WEATHER ACROSS CENTRAL AND WEST MINNESOTA  *****

CITY           SKY/WX    TMP DP  RH WIND       PRES   REMARKS
BEMIDJI        CLOUDY    23  19  86 NW8       30.09R WCI  14
PARK RAPIDS    CLOUDY    24  17  74 NW10      30.08R WCI  14
WADENA         CLOUDY    25  19  80 NW6       30.09R WCI  18
DETROIT LAKES  CLOUDY    27  23  86 N5        30.12R WCI  21
MOORHEAD       CLOUDY    28  21  74 NW12      30.15R WCI  18
FERGUS FALLS   CLOUDY    27  21  80 N13       30.16R WCI  16
ELBOW LAKE     CLOUDY    27  22  84 NW10      30.12R WCI  17
MORRIS MN      CLOUDY    28  25  86 NW9       30.11R WCI  20
STAPLES        CLOUDY    25  19  80 N6        30.09R WCI  18
WHEATON        CLOUDY   N/A N/A N/A N10       30.16R
$$
  *****  WEATHER ELSEWHERE ACROSS MINNESOTA  *****

CITY           SKY/WX    TMP DP  RH WIND       PRES   REMARKS
DULUTH         CLOUDY    28  23  81 NW13      30.01R WCI  17
INTRNTL FALLS  CLOUDY    26  20  77 N6        30.07R WCI  19
ELY            CLOUDY    23  21  93 CALM      30.02R
CLOQUET        CLOUDY    28  21  74 NW7       30.03R WCI  21
BRAINERD       CLOUDY    28  21  75 NW8       30.07R WCI  20
HIBBING        CLOUDY    25  22  88 NW10      30.03R WCI  15
ALEXANDRIA     CLOUDY    28  22  78 N7        30.09R WCI  21
SAINT CLOUD    CLOUDY    30  23  75 NW9       30.08R WCI  22
MINNEAPOLIS    CLOUDY    31  21  66 N13       30.08R WCI  21
$$

  *****  WEATHER ACROSS SOUTH DAKOTA  *****

CITY           SKY/WX    TMP DP  RH WIND       PRES   REMARKS
SIOUX FALLS    CLOUDY    33  33 100 NW7       30.11R FOG
BROOKINGS      NOT AVBL
WATERTOWN      CLOUDY    25  23  92 N3        30.11R
HURON          CLOUDY    30  28  92 N5        30.14R
SISSETON         N/A     28  26  92 NW7       30.12R WCI  21
ABERDEEN       CLOUDY    29  24  82 NW8       30.14R WCI  21
MITCHELL       LGT SNOW  32  31  96 W5        30.14R FOG
PIERRE         CLOUDY    30  25  81 W6        30.12R WCI  24
MOBRIDGE       CLOUDY    29  23  78 E3        30.11R
RAPID CITY     CLOUDY    23  18  81 CALM      30.06S
$$

  *****  SOME WEATHER IN NEARBY STATES *****

CITY           SKY/WX    TMP DP  RH WIND       PRES   REMARKS
GLASGOW MT     CLOUDY    26  24  92 SW6       30.09R WCI  19
GREAT FALLS MT LGT SNOW  29  29 100 SW6       30.13R FOG     WCI  23
CHEYENNE WY    CLOUDY    23  15  71 W7        30.03R WCI  15
SCOTTSBLUFF NE CLOUDY    22  15  75 NW7       30.08R WCI  13
OMAHA NE       CLOUDY    33  27  78 W5        30.15R
DES MOINES IA  CLOUDY    36  30  79 W7        30.12R
DAVENPORT IA   CLOUDY    36  33  89 W9        30.08R
CHICAGO IL     CLOUDY    36  32  85 W10       30.03R
EAU CLAIRE WI  CLOUDY    31  22  69 NW9       30.04R WCI  23
LA CROSSE WI   CLOUDY    38  28  67 NW12      30.04R
$$

  *****  SOME NATIONAL WEATHER *****

CITY           SKY/WX    TMP DP  RH WIND       PRES   REMARKS
LA GUARDIA NY  PTCLDY    43  28  55 W7G21     29.88R
RALEIGH NC     PTCLDY    40  29  64 CALM      30.05R
ATLANTA GA     CLEAR     38  31  76 NW8       30.11S
NEW ORLEANS LA MOCLDY    53  43  68 E3        30.14F
OKLAHOMA CITY  CLEAR     38  27  64 SW7       30.04R
ALBUQUERQUE NM CLOUDY    33  16  49 N6        29.97S
SALT LAKE CITY MOCLDY    30  27  88 CALM      30.14S
LOS ANGELES CA PTCLDY    56  34  43 N6        29.95S
BOISE ID       PTCLDY    27  24  89 CALM      30.27R
SEATTLE WA     CLOUDY    44  41  89 SE7       30.34S
$$

*** WEATHER ACROSS MANITOBA...SASKATCHEWAN AND ONTARIO ***
                ***ONTARIO***

CITY           SKY/WX    TMP DP  RH WIND       PRES   REMARKS
GERALDTON      LGT SNOW  28  27  93 NW7       29.86R WCI  21
THUNDER BAY    FLURRIES  27  21  80 W8        29.98R WCI  18
SIOUX LOOKOUT  FLURRIES  19  18  93 N3        30.04R
TORONTO        MOCLDY    39  32  75 W21G28    29.75S
BIG TROUT LK   CLOUDY    21  19  93 NW9       30.07R WCI  11
PICKLE LAKE    NOT AVBL
DRYDEN         CLOUDY    21  19  93 NW6       30.05R WCI  14
KENORA         FLURRIES  18  16  93 N6        30.08R WCI   9
$$
                *** MANITOBA***

CITY           SKY/WX    TMP DP  RH WIND       PRES   REMARKS
BRANDON        CLOUDY    27  25  93 N3        30.14R
DAUPHIN        CLOUDY    27  27 100 SE6       30.15S FOG     WCI  20
ISLAND LAKE    NOT AVBL
PILOT MOUND      N/A     27  25  93 NW2         N/A
THE PAS        SNOW      23  21  93 E2        30.14R VSB 3/8
THOMPSON       FLURRIES  18  14  86 NE2       30.17R
WINNIPEG       CLOUDY    25  21  86 N9        30.16R WCI  15
LYNN LAKE      MOCLDY    12  12 100 SE6       30.11S WCI   3
CHURCHILL      LGT SNOW  16  14  93 SW5       30.21S FOG     WCI   9
GILLAM         SNOW      14  12  92 VRB2      30.21R VSB 1/2
$$
                ***SASKATCHEWAN***

CITY           SKY/WX    TMP DP  RH WIND       PRES   REMARKS
ESTEVAN        CLOUDY    27  23  86 S6        30.11R WCI  20
KINDERSLEY     FRZ DRZL  25  23  93 N6        30.06R WCI  18
LLOYDMINSTER   FOG       19  18  93 W10       30.08S VSB 1   WCI   8
PRINCE ALBERT  FRZ DRZL  25  25 100 N2        30.11R FOG
REGINA         CLOUDY    27  25  93 SE7       30.08R WCI  19
YORKTON        CLOUDY    30  25  80 SW7       30.10S WCI  23
N. BATTLEFORD  CLOUDY    25  25 100 VRB2      30.12R   C1F1C2F2C3F3C4F4C5F5C6F6C7F7C8F8C9F9CaFaCbFbCcFcCdFdCe!



USA.gov is the U.S. government's official web portal to all federal, state and local government web resources and services.